Regional Weather Roundup
Issued by NWS

Home | Current Version | Previous Version | Graphics & Text | Print | Product List | Glossary On
Versions: 1 2 3 4 5 6 7 8 9 10 11 12 13 14 15 16 17 18 19 20 21 22 23 24 25 26 27 28 29 30 31 32 33 34 35 36 37 38 39 40 41 42 43 44 45 46 47 48 49 50
000
ASUS43 KLMK 242302
RWRKY
KENTUCKY REGIONAL WEATHER ROUNDUP
NATIONAL WEATHER SERVICE LOUISVILLE KY
700 PM EDT FRI OCT 24 2014

NOTE "FAIR" INDICATES FEW OR NO CLOUDS BELOW 12,000 FEET
WITH NO SIGNIFICANT WEATHER AND/OR OBSTRUCTIONS TO VISIBILITY.

KYZ001>023-026-027-061>063-070>075-250000-
WESTERN AND SOUTH CENTRAL KENTUCKY

CITY           SKY/WX    TMP DP  RH WIND       PRES   REMARKS
PADUCAH        PTCLDY    64  54  69 SW3       30.05S
HENDERSON      PTCLDY   N/A N/A N/A CALM      30.04S
OWENSBORO      CLEAR     64  52  65 W3        30.05S
HOPKINSVILLE   PTCLDY    64  54  69 NW2       30.07R
BOWLING GREEN  MOCLDY    64  46  52 CALM      30.07R
GLASGOW        NOT AVBL
$$

KYZ024-025-028>034-038-045-046-053-250000-
NORTH CENTRAL KENTUCKY

CITY           SKY/WX    TMP DP  RH WIND       PRES   REMARKS
LOUISVILLE/SDF PTCLDY    63  45  51 CALM      30.05S
LOUISVILLE/LOU PTCLDY    62  46  55 SW3       30.06R
FORT KNOX      MOCLDY    61  48  63 E2        30.04S HAZE
$$

KYZ035>037-039>044-047>052-055>060-089>105-250000-
NORTHEAST KENTUCKY

CITY           SKY/WX    TMP DP  RH WIND       PRES   REMARKS
LEXINGTON      CLEAR     62  42  47 CALM      30.06S
COVINGTON      MOCLDY    58  38  47 S5        30.03F
FRANKFORT      CLEAR     55  43  63 CALM      30.05R
$$

KYZ054-064>069-076>088-106>120-250000-
SOUTHEAST KENTUCKY

CITY           SKY/WX    TMP DP  RH WIND       PRES   REMARKS
JACKSON        CLEAR     59  40  49 CALM      30.06S
LONDON         CLEAR     61  39  44 CALM      30.06S
SOMERSET       CLEAR     59  43  55 CALM      30.08R
MIDDLESBORO    CLEAR     56  43  61 CALM      30.07R
MONTICELLO     CLEAR     51  42  71 CALM      30.08S
$$




USA.gov is the U.S. government's official web portal to all federal, state and local government web resources and services.